Time,TemperatureF,DewpointF,PressureIn,WindDirection,WindDirectionDegrees,WindSpeedMPH,WindSpeedGustMPH,Humidity,HourlyPrecipIn,Conditions,Clouds,dailyrainin,SoftwareType,DateUTC
2013-01-13 00:00:00,35.0,30.0,-100.00,ENE,71,5.0,-999.0,82,0.00,,,-99.99,,2013-01-13 08:00:00,
2013-01-13 00:22:00,35.0,30.0,-100.00,ENE,71,5.0,-999.0,82,0.00,,,-99.99,,2013-01-13 08:22:00,
2013-01-13 00:32:00,35.0,30.0,-100.00,ENE,71,5.0,-999.0,82,0.00,,,-99.99,,2013-01-13 08:32:00,
2013-01-13 00:42:00,35.0,30.0,-100.00,ENE,71,5.0,-999.0,82,0.00,,,-99.99,,2013-01-13 08:42:00,
2013-01-13 00:52:00,35.0,30.0,-100.00,ENE,71,5.0,-999.0,82,0.00,,,-99.99,,2013-01-13 08:52:00,
2013-01-13 01:00:00,37.0,31.0,-100.00,East,96,2.0,-999.0,80,0.00,,,-99.99,,2013-01-13 09:00:00,
2013-01-13 01:22:00,37.0,31.0,-100.00,East,96,2.0,-999.0,80,0.00,,,-99.99,,2013-01-13 09:22:00,
2013-01-13 01:32:00,37.0,31.0,-100.00,East,96,2.0,-999.0,80,0.00,,,-99.99,,2013-01-13 09:32:00,
2013-01-13 01:42:00,37.0,31.0,-100.00,East,96,2.0,-999.0,80,0.00,,,-99.99,,2013-01-13 09:42:00,
2013-01-13 01:52:00,37.0,31.0,-100.00,East,96,2.0,-999.0,80,0.00,,,-99.99,,2013-01-13 09:52:00,
2013-01-13 02:00:00,34.0,29.0,-100.00,East,80,5.0,-999.0,82,0.00,,,-99.99,,2013-01-13 10:00:00,
2013-01-13 02:22:00,34.0,29.0,-100.00,East,80,5.0,-999.0,82,0.00,,,-99.99,,2013-01-13 10:22:00,
2013-01-13 02:32:00,34.0,29.0,-100.00,East,80,5.0,-999.0,82,0.00,,,-99.99,,2013-01-13 10:32:00,
2013-01-13 02:42:00,34.0,29.0,-100.00,East,80,5.0,-999.0,82,0.00,,,-99.99,,2013-01-13 10:42:00,
2013-01-13 02:52:00,34.0,29.0,-100.00,East,80,5.0,-999.0,82,0.00,,,-99.99,,2013-01-13 10:52:00,
2013-01-13 03:00:00,34.0,30.0,-100.00,East,92,6.0,-999.0,83,0.00,,,-99.99,,2013-01-13 11:00:00,
2013-01-13 03:22:00,34.0,30.0,-100.00,East,92,6.0,-999.0,83,0.00,,,-99.99,,2013-01-13 11:22:00,
2013-01-13 03:33:00,34.0,30.0,-100.00,East,92,6.0,-999.0,83,0.00,,,-99.99,,2013-01-13 11:33:00,
2013-01-13 03:42:00,34.0,30.0,-100.00,East,92,6.0,-999.0,83,0.00,,,-99.99,,2013-01-13 11:42:00,
2013-01-13 03:52:00,34.0,30.0,-100.00,East,92,6.0,-999.0,83,0.00,,,-99.99,,2013-01-13 11:52:00,
2013-01-13 04:00:00,35.0,29.0,-100.00,East,79,5.0,-999.0,79,0.00,,,-99.99,,2013-01-13 12:00:00,
2013-01-13 04:22:00,35.0,29.0,-100.00,East,79,5.0,-999.0,79,0.00,,,-99.99,,2013-01-13 12:22:00,
2013-01-13 04:33:00,35.0,29.0,-100.00,East,79,5.0,-999.0,79,0.00,,,-99.99,,2013-01-13 12:33:00,
2013-01-13 04:42:00,35.0,29.0,-100.00,East,79,5.0,-999.0,79,0.00,,,-99.99,,2013-01-13 12:42:00,
2013-01-13 04:53:00,35.0,29.0,-100.00,East,79,5.0,-999.0,79,0.00,,,-99.99,,2013-01-13 12:53:00,
2013-01-13 05:00:00,34.0,29.0,-100.00,East,80,3.0,-999.0,82,0.00,,,-99.99,,2013-01-13 13:00:00,
2013-01-13 05:22:00,34.0,29.0,-100.00,East,80,3.0,-999.0,82,0.00,,,-99.99,,2013-01-13 13:22:00,
2013-01-13 05:33:00,34.0,29.0,-100.00,East,80,3.0,-999.0,82,0.00,,,-99.99,,2013-01-13 13:33:00,
2013-01-13 05:42:00,34.0,29.0,-100.00,East,80,3.0,-999.0,82,0.00,,,-99.99,,2013-01-13 13:42:00,
2013-01-13 05:53:00,34.0,29.0,-100.00,East,80,3.0,-999.0,82,0.00,,,-99.99,,2013-01-13 13:53:00,
2013-01-13 06:00:00,33.0,29.0,-100.00,ENE,62,5.0,-999.0,84,0.00,,,-99.99,,2013-01-13 14:00:00,
2013-01-13 06:22:00,33.0,29.0,-100.00,ENE,62,5.0,-999.0,84,0.00,,,-99.99,,2013-01-13 14:22:00,
2013-01-13 06:33:00,33.0,29.0,-100.00,ENE,62,5.0,-999.0,84,0.00,,,-99.99,,2013-01-13 14:33:00,
2013-01-13 06:43:00,33.0,29.0,-100.00,ENE,62,5.0,-999.0,84,0.00,,,-99.99,,2013-01-13 14:43:00,
2013-01-13 06:53:00,33.0,29.0,-100.00,ENE,62,5.0,-999.0,84,0.00,,,-99.99,,2013-01-13 14:53:00,
2013-01-13 07:00:00,33.0,30.0,-100.00,East,88,2.0,-999.0,86,0.00,,,-99.99,,2013-01-13 15:00:00,
2013-01-13 07:23:00,33.0,30.0,-100.00,East,88,2.0,-999.0,86,0.00,,,-99.99,,2013-01-13 15:23:00,
2013-01-13 07:33:00,33.0,30.0,-100.00,East,88,2.0,-999.0,86,0.00,,,-99.99,,2013-01-13 15:33:00,
2013-01-13 07:43:00,33.0,30.0,-100.00,East,88,2.0,-999.0,86,0.00,,,-99.99,,2013-01-13 15:43:00,
2013-01-13 07:53:00,33.0,30.0,-100.00,East,88,2.0,-999.0,86,0.00,,,-99.99,,2013-01-13 15:53:00,
2013-01-13 08:00:00,33.0,29.0,-100.00,ENE,63,3.0,-999.0,87,0.00,,,-99.99,,2013-01-13 16:00:00,
2013-01-13 08:23:00,33.0,29.0,-100.00,ENE,63,3.0,-999.0,87,0.00,,,-99.99,,2013-01-13 16:23:00,
2013-01-13 08:33:00,33.0,29.0,-100.00,ENE,63,3.0,-999.0,87,0.00,,,-99.99,,2013-01-13 16:33:00,
2013-01-13 08:43:00,33.0,29.0,-100.00,ENE,63,3.0,-999.0,87,0.00,,,-99.99,,2013-01-13 16:43:00,
2013-01-13 08:53:00,33.0,29.0,-100.00,ENE,63,3.0,-999.0,87,0.00,,,-99.99,,2013-01-13 16:53:00,
2013-01-13 09:00:00,34.0,30.0,-100.00,ENE,57,4.0,-999.0,85,0.00,,,-99.99,,2013-01-13 17:00:00,
2013-01-13 09:22:00,34.0,30.0,-100.00,ENE,57,4.0,-999.0,85,0.00,,,-99.99,,2013-01-13 17:22:00,
2013-01-13 09:33:00,34.0,30.0,-100.00,ENE,57,4.0,-999.0,85,0.00,,,-99.99,,2013-01-13 17:33:00,
2013-01-13 09:43:00,34.0,30.0,-100.00,ENE,57,4.0,-999.0,85,0.00,,,-99.99,,2013-01-13 17:43:00,
2013-01-13 09:53:00,34.0,30.0,-100.00,ENE,57,4.0,-999.0,85,0.00,,,-99.99,,2013-01-13 17:53:00,
2013-01-13 10:00:00,41.0,35.0,-100.00,ENE,62,3.0,-999.0,80,0.00,,,-99.99,,2013-01-13 18:00:00,
2013-01-13 10:23:00,41.0,35.0,-100.00,ENE,62,3.0,-999.0,80,0.00,,,-99.99,,2013-01-13 18:23:00,
2013-01-13 10:33:00,41.0,35.0,-100.00,ENE,62,3.0,-999.0,80,0.00,,,-99.99,,2013-01-13 18:33:00,
2013-01-13 10:43:00,41.0,35.0,-100.00,ENE,62,3.0,-999.0,80,0.00,,,-99.99,,2013-01-13 18:43:00,
2013-01-13 10:53:00,41.0,35.0,-100.00,ENE,62,3.0,-999.0,80,0.00,,,-99.99,,2013-01-13 18:53:00,
2013-01-13 11:00:00,47.0,35.0,-100.00,NNE,13,4.0,-999.0,61,0.00,,,-99.99,,2013-01-13 19:00:00,
2013-01-13 11:23:00,47.0,35.0,-100.00,NNE,13,4.0,-999.0,61,0.00,,,-99.99,,2013-01-13 19:23:00,
2013-01-13 11:33:00,47.0,35.0,-100.00,NNE,13,4.0,-999.0,61,0.00,,,-99.99,,2013-01-13 19:33:00,
2013-01-13 11:43:00,47.0,35.0,-100.00,NNE,13,4.0,-999.0,61,0.00,,,-99.99,,2013-01-13 19:43:00,
2013-01-13 11:53:00,47.0,35.0,-100.00,NNE,13,4.0,-999.0,61,0.00,,,-99.99,,2013-01-13 19:53:00,
2013-01-13 12:00:00,49.0,35.0,-100.00,NW,321,4.0,-999.0,59,0.00,,,-99.99,,2013-01-13 20:00:00,
2013-01-13 12:23:00,49.0,35.0,-100.00,NW,321,4.0,-999.0,59,0.00,,,-99.99,,2013-01-13 20:23:00,
2013-01-13 12:33:00,49.0,35.0,-100.00,NW,321,4.0,-999.0,59,0.00,,,-99.99,,2013-01-13 20:33:00,
2013-01-13 12:43:00,49.0,35.0,-100.00,NW,321,4.0,-999.0,59,0.00,,,-99.99,,2013-01-13 20:43:00,
2013-01-13 12:53:00,49.0,35.0,-100.00,NW,321,4.0,-999.0,59,0.00,,,-99.99,,2013-01-13 20:53:00,
2013-01-13 13:00:00,48.0,35.0,-100.00,NW,317,6.0,-999.0,62,0.00,,,-99.99,,2013-01-13 21:00:00,
2013-01-13 13:23:00,48.0,35.0,-100.00,NW,317,6.0,-999.0,62,0.00,,,-99.99,,2013-01-13 21:23:00,
2013-01-13 13:33:00,48.0,35.0,-100.00,NW,317,6.0,-999.0,62,0.00,,,-99.99,,2013-01-13 21:33:00,
2013-01-13 13:43:00,48.0,35.0,-100.00,NW,317,6.0,-999.0,62,0.00,,,-99.99,,2013-01-13 21:43:00,
2013-01-13 13:53:00,48.0,35.0,-100.00,NW,317,6.0,-999.0,62,0.00,,,-99.99,,2013-01-13 21:53:00,
2013-01-13 14:00:00,48.0,34.0,-100.00,NW,320,11.0,-999.0,58,0.00,,,-99.99,,2013-01-13 22:00:00,
2013-01-13 14:23:00,48.0,34.0,-100.00,NW,320,11.0,-999.0,58,0.00,,,-99.99,,2013-01-13 22:23:00,
2013-01-13 14:33:00,48.0,34.0,-100.00,NW,320,11.0,-999.0,58,0.00,,,-99.99,,2013-01-13 22:33:00,
2013-01-13 14:43:00,48.0,34.0,-100.00,NW,320,11.0,-999.0,58,0.00,,,-99.99,,2013-01-13 22:43:00,
2013-01-13 14:52:00,48.0,34.0,-100.00,NW,320,11.0,-999.0,58,0.00,,,-99.99,,2013-01-13 22:52:00,
2013-01-13 15:00:00,49.0,35.0,-100.00,NW,319,11.0,-999.0,59,0.00,,,-99.99,,2013-01-13 23:00:00,
2013-01-13 15:23:00,49.0,35.0,-100.00,NW,319,11.0,-999.0,59,0.00,,,-99.99,,2013-01-13 23:23:00,
2013-01-13 15:33:00,49.0,35.0,-100.00,NW,319,11.0,-999.0,59,0.00,,,-99.99,,2013-01-13 23:33:00,
2013-01-13 15:43:00,49.0,35.0,-100.00,NW,319,11.0,-999.0,59,0.00,,,-99.99,,2013-01-13 23:43:00,
2013-01-13 15:53:00,49.0,35.0,-100.00,NW,319,11.0,-999.0,59,0.00,,,-99.99,,2013-01-13 23:53:00,
2013-01-13 16:00:00,48.0,35.0,-100.00,NW,326,5.0,-999.0,59,0.00,,,-99.99,,2013-01-14 00:00:00,
2013-01-13 16:23:00,48.0,35.0,-100.00,NW,326,5.0,-999.0,59,0.00,,,-99.99,,2013-01-14 00:23:00,
2013-01-13 16:33:00,48.0,35.0,-100.00,NW,326,5.0,-999.0,59,0.00,,,-99.99,,2013-01-14 00:33:00,
2013-01-13 16:43:00,48.0,35.0,-100.00,NW,326,5.0,-999.0,59,0.00,,,-99.99,,2013-01-14 00:43:00,
2013-01-13 16:53:00,48.0,35.0,-100.00,NW,326,5.0,-999.0,59,0.00,,,-99.99,,2013-01-14 00:53:00,
2013-01-13 17:00:00,47.0,34.0,-100.00,North,350,5.0,-999.0,59,0.00,,,-99.99,,2013-01-14 01:00:00,
2013-01-13 17:22:00,47.0,34.0,-100.00,North,350,5.0,-999.0,59,0.00,,,-99.99,,2013-01-14 01:22:00,
2013-01-13 17:33:00,47.0,34.0,-100.00,North,350,5.0,-999.0,59,0.00,,,-99.99,,2013-01-14 01:33:00,
2013-01-13 17:42:00,47.0,34.0,-100.00,North,350,5.0,-999.0,59,0.00,,,-99.99,,2013-01-14 01:42:00,
2013-01-13 17:52:00,47.0,34.0,-100.00,North,350,5.0,-999.0,59,0.00,,,-99.99,,2013-01-14 01:52:00,
2013-01-13 18:00:00,42.0,32.0,-100.00,NNE,26,2.0,-999.0,68,0.00,,,-99.99,,2013-01-14 02:00:00,
2013-01-13 18:23:00,42.0,32.0,-100.00,NNE,26,2.0,-999.0,68,0.00,,,-99.99,,2013-01-14 02:23:00,
2013-01-13 18:33:00,42.0,32.0,-100.00,NNE,26,2.0,-999.0,68,0.00,,,-99.99,,2013-01-14 02:33:00,
2013-01-13 18:43:00,42.0,32.0,-100.00,NNE,26,2.0,-999.0,68,0.00,,,-99.99,,2013-01-14 02:43:00,
2013-01-13 18:53:00,42.0,32.0,-100.00,NNE,26,2.0,-999.0,68,0.00,,,-99.99,,2013-01-14 02:53:00,
2013-01-13 19:00:00,39.0,32.0,-100.00,NE,51,3.0,-999.0,74,0.00,,,-99.99,,2013-01-14 03:00:00,
2013-01-13 19:22:00,39.0,32.0,-100.00,NE,51,3.0,-999.0,74,0.00,,,-99.99,,2013-01-14 03:22:00,
2013-01-13 19:33:00,39.0,32.0,-100.00,NE,51,3.0,-999.0,74,0.00,,,-99.99,,2013-01-14 03:33:00,
2013-01-13 19:43:00,39.0,32.0,-100.00,NE,51,3.0,-999.0,74,0.00,,,-99.99,,2013-01-14 03:43:00,
2013-01-13 19:53:00,39.0,32.0,-100.00,NE,51,3.0,-999.0,74,0.00,,,-99.99,,2013-01-14 03:53:00,
2013-01-13 20:00:00,38.0,32.0,-100.00,NE,56,6.0,-999.0,78,0.00,,,-99.99,,2013-01-14 04:00:00,
2013-01-13 20:22:00,38.0,32.0,-100.00,NE,56,6.0,-999.0,78,0.00,,,-99.99,,2013-01-14 04:22:00,
2013-01-13 20:32:00,38.0,32.0,-100.00,NE,56,6.0,-999.0,78,0.00,,,-99.99,,2013-01-14 04:32:00,
2013-01-13 20:42:00,38.0,32.0,-100.00,NE,56,6.0,-999.0,78,0.00,,,-99.99,,2013-01-14 04:42:00,
2013-01-13 20:53:00,38.0,32.0,-100.00,NE,56,6.0,-999.0,78,0.00,,,-99.99,,2013-01-14 04:53:00,
2013-01-13 21:00:00,38.0,32.0,-100.00,NE,50,3.0,-999.0,79,0.00,,,-99.99,,2013-01-14 05:00:00,
2013-01-13 21:22:00,38.0,32.0,-100.00,NE,50,3.0,-999.0,79,0.00,,,-99.99,,2013-01-14 05:22:00,
2013-01-13 21:33:00,38.0,32.0,-100.00,NE,50,3.0,-999.0,79,0.00,,,-99.99,,2013-01-14 05:33:00,
2013-01-13 21:43:00,38.0,32.0,-100.00,NE,50,3.0,-999.0,79,0.00,,,-99.99,,2013-01-14 05:43:00,
2013-01-13 21:52:00,38.0,32.0,-100.00,NE,50,3.0,-999.0,79,0.00,,,-99.99,,2013-01-14 05:52:00,
2013-01-13 22:00:00,36.0,31.0,-100.00,ENE,77,4.0,-999.0,84,0.00,,,-99.99,,2013-01-14 06:00:00,
2013-01-13 22:23:00,36.0,31.0,-100.00,ENE,77,4.0,-999.0,84,0.00,,,-99.99,,2013-01-14 06:23:00,
2013-01-13 22:33:00,36.0,31.0,-100.00,ENE,77,4.0,-999.0,84,0.00,,,-99.99,,2013-01-14 06:33:00,
2013-01-13 22:43:00,36.0,31.0,-100.00,ENE,77,4.0,-999.0,84,0.00,,,-99.99,,2013-01-14 06:43:00,
2013-01-13 22:52:00,36.0,31.0,-100.00,ENE,77,4.0,-999.0,84,0.00,,,-99.99,,2013-01-14 06:52:00,
2013-01-13 23:00:00,35.0,31.0,-100.00,NE,56,4.0,-999.0,85,0.00,,,-99.99,,2013-01-14 07:00:00,
2013-01-13 23:23:00,35.0,31.0,-100.00,NE,56,4.0,-999.0,85,0.00,,,-99.99,,2013-01-14 07:23:00,
2013-01-13 23:33:00,35.0,31.0,-100.00,NE,56,4.0,-999.0,85,0.00,,,-99.99,,2013-01-14 07:33:00,
2013-01-13 23:43:00,35.0,31.0,-100.00,NE,56,4.0,-999.0,85,0.00,,,-99.99,,2013-01-14 07:43:00,
2013-01-13 23:52:00,35.0,31.0,-100.00,NE,56,4.0,-999.0,85,0.00,,,-99.99,,2013-01-14 07:52:00,